N3HBJ Weather Reports


time (UTC)temp
C
wind
direction
speed
KPH
gust
KPH
rain 1hr
cm
rain 24hr
cm
rain mn
cm
humidity
%
barometer
mb
20260505122224 18 86 6.4 17.7 0.00 0.00 0.00 58 1009.2
20260505121725 18 111 4.8 20.9 0.00 0.00 0.00 57 1009.2
20260505121222 18 135 6.4 20.9 0.00 0.00 0.00 58 1009.3
20260505120725 18 110 9.7 25.7 0.00 0.00 0.00 59 1009.2
20260505120222 18 145 8.0 25.7 0.00 0.00 0.00 58 1009.4
20260505115724 18 79 4.8 14.5 0.00 0.00 0.00 60 1009.4
20260505115222 18 80 4.8 22.5 0.00 0.00 0.00 59 1009.4
20260505114721 17 123 6.4 22.5 0.00 0.00 0.00 60 1009.4
20260505114445 17 111 8.0 22.5 0.00 0.00 0.00 60 1009.4
20260505113721 17 78 6.4 22.5 0.00 0.00 0.00 61 1009.2
20260505113224 17 114 6.4 25.7 0.00 0.00 0.00 61 1009.2
20260505112942 17 91 6.4 25.7 0.00 0.00 0.00 61 1009.2
20260505112221 17 82 4.8 14.5 0.00 0.00 0.00 61 1009.2
20260505111721 17 161 4.8 19.3 0.00 0.00 0.00 61 1009.2
20260505111233 17 165 4.8 19.3 0.00 0.00 0.00 61 1009.1
20260505110721 17 145 4.8 14.5 0.00 0.00 0.00 62 1009.0
20260505110220 17 130 3.2 14.5 0.00 0.00 0.00 61 1008.9
20260505102213 16 143 3.2 16.1 0.00 0.00 0.00 61 1008.6
20260505101710 16 80 3.2 16.1 0.00 0.00 0.00 61 1008.6
20260505101211 16 92 4.8 17.7 0.00 0.00 0.00 62 1008.3
20260505100933 16 103 3.2 17.7 0.00 0.00 0.00 62 1008.3
20260505100212 16 84 4.8 12.9 0.00 0.00 0.00 62 1008.3
20260505095706 16 81 3.2 12.9 0.00 0.00 0.00 63 1008.3
20260505095207 16 52 3.2 16.1 0.00 0.00 0.00 63 1008.2
20260505094707 16 84 3.2 16.1 0.00 0.00 0.00 63 1008.2
20260505094206 16 98 4.8 16.1 0.00 0.00 0.00 63 1008.1
20260505093707 16 55 6.4 16.1 0.00 0.00 0.00 63 1008.2
20260505093205 16 77 4.8 16.1 0.00 0.00 0.00 63 1008.3
20260505092703 16 83 4.8 17.7 0.00 0.00 0.00 63 1008.2
20260505092428 16 75 4.8 17.7 0.00 0.00 0.00 62 1008.3
20260505091700 16 84 4.8 16.1 0.00 0.00 0.00 62 1008.3
20260505091419 16 91 4.8 16.1 0.00 0.00 0.00 62 1008.3
20260505090648 16 113 1.6 11.3 0.00 0.00 0.00 62 1008.3
20260505090147 16 84 1.6 9.7 0.00 0.00 0.00 62 1008.3
20260505085644 16 116 1.6 9.7 0.00 0.00 0.00 61 1008.4
20260505085144 16 82 1.6 8.0 0.00 0.00 0.00 62 1008.6
20260505084645 16 104 0.0 6.4 0.00 0.00 0.00 62 1008.7
20260505084144 16 178 0.0 8.0 0.00 0.00 0.00 61 1008.7
20260505083644 16 147 0.0 8.0 0.00 0.00 0.00 61 1008.6
20260505083145 17 193 0.0 3.2 0.00 0.00 0.00 61 1008.4
20260505082642 17 148 0.0 6.4 0.00 0.00 0.00 60 1008.1
20260505082141 17 120 1.6 14.5 0.00 0.00 0.00 59 1007.8
20260505081643 17 127 3.2 14.5 0.00 0.00 0.00 59 1007.9
20260505081141 17 76 1.6 9.7 0.00 0.00 0.00 59 1007.8
20260505080641 17 100 1.6 8.0 0.00 0.00 0.00 60 1007.8
20260505080141 17 78 1.6 12.9 0.00 0.00 0.00 60 1007.8
20260505075641 17 88 1.6 12.9 0.00 0.00 0.00 62 1007.8
20260505075140 17 109 1.6 6.4 0.00 0.00 0.00 61 1007.9
20260505074640 17 109 1.6 6.4 0.00 0.00 0.00 62 1007.9
20260505074140 17 110 1.6 9.7 0.00 0.00 0.00 62 1007.7
20260505073641 17 82 1.6 11.3 0.00 0.00 0.00 62 1007.7
20260505073141 17 127 1.6 11.3 0.00 0.00 0.00 61 1007.6
20260505072640 17 120 3.2 25.7 0.00 0.00 0.00 61 1007.7
20260505072140 17 84 6.4 25.7 0.00 0.00 0.00 61 1007.6
20260505071641 16 92 4.8 20.9 0.00 0.00 0.00 63 1007.7
20260505071140 16 132 1.6 11.3 0.00 0.00 0.00 64 1007.8
20260505070858 15 96 1.6 11.3 0.00 0.00 0.00 66 1007.8
20260505070142 15 104 0.0 6.4 0.00 0.00 0.00 67 1007.7
20260505065640 15 146 0.0 6.4 0.00 0.00 0.00 68 1007.6
20260505065142 14 111 0.0 6.4 0.00 0.00 0.00 70 1007.6
20260505064638 13 111 0.0 6.4 0.00 0.00 0.00 71 1007.6
20260505064138 13 121 0.0 9.7 0.00 0.00 0.00 73 1007.6
20260505063638 12 121 0.0 9.7 0.00 0.00 0.00 75 1007.7
20260505063136 12 80 0.0 0.0 0.00 0.00 0.00 77 1007.7
20260505062634 11 80 0.0 0.0 0.00 0.00 0.00 78 1007.7
20260505062134 11 80 0.0 1.6 0.00 0.00 0.00 78 1007.8
20260505061858 11 80 0.0 1.6 0.00 0.00 0.00 78 1007.8
20260505061135 11 80 0.0 0.0 0.00 0.00 0.00 78 1007.8
20260505060855 12 80 0.0 0.0 0.00 0.00 0.00 77 1007.8
20260505060132 12 80 0.0 0.0 0.00 0.00 0.00 77 1007.9
20260505055856 12 80 0.0 0.0 0.00 0.00 0.00 77 1007.9
20260505055130 12 80 0.0 0.0 0.00 0.00 0.00 76 1008.0
20260505054628 12 80 0.0 0.0 0.00 0.00 0.00 75 1008.0
20260505054352 13 80 0.0 0.0 0.00 0.00 0.00 75 1008.0
20260505053629 13 80 0.0 0.0 0.00 0.00 0.00 73 1008.0
20260505053128 13 80 0.0 0.0 0.00 0.00 0.00 72 1008.1
20260505052626 13 80 0.0 0.0 0.00 0.00 0.00 71 1008.1
20260505052127 14 80 0.0 0.0 0.00 0.00 0.00 70 1008.2
20260505051628 14 80 0.0 0.0 0.00 0.00 0.00 69 1008.2
20260505051126 15 80 0.0 0.0 0.00 0.00 0.00 68 1008.2
20260505050626 15 80 0.0 0.0 0.00 0.00 0.00 67 1008.2
20260505050139 15 80 0.0 0.0 0.00 0.00 0.00 66 1008.3
20260505041126 15 69 0.0 4.8 0.00 0.00 0.00 69 1008.4
20260505040627 14 69 0.0 0.0 0.00 0.00 0.00 70 1008.4
20260505040124 14 69 0.0 1.6 0.00 0.00 0.00 70 1008.4
20260505035626 14 69 0.0 1.6 0.00 0.00 0.00 69 1008.4
20260505035122 14 69 0.0 0.0 0.00 0.00 0.00 70 1008.4
20260505034622 13 69 0.0 0.0 0.00 0.00 0.00 71 1008.4
20260505034122 13 69 0.0 0.0 0.00 0.00 0.00 72 1008.6
20260505033617 13 69 0.0 0.0 0.00 0.00 0.00 72 1008.6
20260505033118 13 69 0.0 0.0 0.00 0.00 0.00 71 1008.4
20260505032617 14 69 0.0 0.0 0.00 0.00 0.00 72 1008.4
20260505032114 14 69 0.0 0.0 0.00 0.00 0.00 70 1008.4
20260505031612 14 69 0.0 0.0 0.00 0.00 0.00 69 1008.4
20260505031112 15 69 0.0 0.0 0.00 0.00 0.00 69 1008.3
20260505030611 15 69 0.0 0.0 0.00 0.00 0.00 68 1008.3
20260505030116 15 69 0.0 0.0 0.00 0.00 0.00 68 1008.3
20260505025832 15 69 0.0 0.0 0.00 0.00 0.00 67 1008.3
20260505025112 16 69 0.0 4.8 0.00 0.00 0.00 66 1008.4
20260505024612 16 69 0.0 4.8 0.00 0.00 0.00 63 1008.3
20260505024331 16 65 0.0 0.0 0.00 0.00 0.00 65 1008.3
20260505023834 16 65 0.0 4.8 0.00 0.00 0.00 64 1008.3
20260505023110 15 65 0.0 4.8 0.00 0.00 0.00 64 1008.3
20260505022608 15 59 0.0 0.0 0.00 0.00 0.00 66 1008.3
20260505022110 15 59 0.0 1.6 0.00 0.00 0.00 65 1008.4
20260505021607 16 59 0.0 6.4 0.00 0.00 0.00 64 1008.4
20260505021108 16 107 0.0 6.4 0.00 0.00 0.00 64 1008.4
20260505020608 16 47 0.0 1.6 0.00 0.00 0.00 63 1008.3
20260505020108 16 47 0.0 0.0 0.00 0.00 0.00 63 1008.4
20260505015605 16 47 0.0 0.0 0.00 0.00 0.00 62 1008.3
20260505015108 17 47 0.0 1.6 0.00 0.00 0.00 61 1008.4
20260505014605 17 47 0.0 4.8 0.00 0.00 0.00 59 1008.3
20260505014106 17 47 1.6 4.8 0.00 0.00 0.00 59 1008.2
20260505013833 17 46 0.0 4.8 0.00 0.00 0.00 57 1008.1
20260505013106 17 76 0.0 4.8 0.00 0.00 0.00 57 1008.2
20260505012605 18 76 0.0 4.8 0.00 0.00 0.00 56 1008.2
20260505012106 18 74 1.6 9.7 0.00 0.00 0.00 55 1008.2
20260505011606 18 103 3.2 9.7 0.00 0.00 0.00 54 1008.2
20260505011106 18 88 3.2 17.7 0.00 0.00 0.00 53 1008.2
20260505011045 18 85 1.6 17.7 0.00 0.00 0.00 52 1008.3
20260505010105 18 73 0.0 6.4 0.00 0.00 0.00 52 1008.3
20260505005605 18 90 0.0 0.0 0.00 0.00 0.00 52 1008.3
20260505005103 18 90 0.0 0.0 0.00 0.00 0.00 49 1008.1
20260505004601 19 90 1.6 11.3 0.00 0.00 0.00 49 1008.0
20260505004101 19 90 3.2 11.3 0.00 0.00 0.00 49 1008.0
20260505003824 19 65 1.6 9.7 0.00 0.00 0.00 48 1007.8
20260505003056 19 98 0.0 6.4 0.00 0.00 0.00 49 1007.8
20260505002552 19 87 1.6 11.3 0.00 0.00 0.00 47 1007.8
20260505002053 19 126 3.2 12.9 0.00 0.00 0.00 46 1007.7
20260505001551 19 130 1.6 12.9 0.00 0.00 0.00 47 1007.8
20260505001050 19 101 1.6 11.3 0.00 0.00 0.00 46 1007.7
20260505000552 19 85 3.2 12.9 0.00 0.00 0.00 46 1007.7
20260504235547 20 178 3.2 16.1 0.00 0.00 0.00 45 1007.6
20260504235310 20 80 3.2 14.5 0.00 0.00 0.00 44 1007.7
20260504234808 20 95 3.2 14.5 0.00 0.00 0.00 44 1007.6
20260504234045 20 78 4.8 16.1 0.00 0.00 0.00 43 1007.6
20260504233552 20 78 6.4 16.1 0.00 0.00 0.00 42 1007.5
20260504233043 20 115 4.8 16.1 0.00 0.00 0.00 42 1007.5
20260504232543 20 88 4.8 24.1 0.00 0.00 0.00 42 1007.5
20260504232041 20 80 4.8 24.1 0.00 0.00 0.00 41 1007.4
20260504231539 21 104 4.8 16.1 0.00 0.00 0.00 42 1007.3
20260504231035 21 123 6.4 19.3 0.00 0.00 0.00 40 1007.2
20260504230536 21 179 9.7 25.7 0.00 0.00 0.00 41 1007.3
20260504230035 21 97 6.4 25.7 0.00 0.00 0.00 40 1007.2
20260504225748 21 85 4.8 17.7 0.00 0.00 0.00 41 1007.1
20260504225251 21 103 3.2 16.1 0.00 0.00 0.00 42 1007.0
20260504224529 21 79 3.2 20.9 0.00 0.00 0.00 43 1007.1
20260504224027 21 173 6.4 20.9 0.00 0.00 0.00 43 1007.1
20260504223525 21 42 8.0 20.9 0.00 0.00 0.00 42 1007.1
20260504223247 21 91 8.0 20.9 0.00 0.00 0.00 42 1007.1
20260504222524 21 48 8.0 27.4 0.00 0.00 0.00 42 1007.0
20260504222025 21 109 8.0 27.4 0.00 0.00 0.00 42 1007.1
20260504221801 21 94 6.4 19.3 0.00 0.00 0.00 42 1007.1
20260504221026 21 155 6.4 24.1 0.00 0.00 0.00 42 1007.1
20260504220527 21 103 6.4 24.1 0.00 0.00 0.00 41 1007.1
20260504220254 21 157 8.0 22.5 0.00 0.00 0.00 41 1007.1
20260504215526 22 115 11.3 29.0 0.00 0.00 0.00 41 1007.0
20260504215024 22 77 8.0 29.0 0.00 0.00 0.00 40 1006.9
20260504214743 22 90 6.4 14.5 0.00 0.00 0.00 40 1007.1
20260504214504 21 119 6.4 16.1 0.00 0.00 0.00 41 1007.1
20260504213527 21 169 8.0 20.9 0.00 0.00 0.00 40 1007.0
20260504213025 22 117 8.0 22.5 0.00 0.00 0.00 38 1007.1
20260504212525 22 124 8.0 22.5 0.00 0.00 0.00 38 1007.1
20260504212018 22 186 6.4 19.3 0.00 0.00 0.00 39 1007.0
20260504211731 22 83 6.4 17.7 0.00 0.00 0.00 39 1007.0
20260504211009 21 168 6.4 19.3 0.00 0.00 0.00 40 1007.1
20260504210459 21 78 6.4 19.3 0.00 0.00 0.00 39 1007.0
20260504210218 21 79 4.8 17.7 0.00 0.00 0.00 40 1007.1
20260504205449 21 122 4.8 17.7 0.00 0.00 0.00 39 1007.1
20260504205206 22 157 6.4 17.7 0.00 0.00 0.00 39 1007.2
20260504204657 22 117 6.4 22.5 0.00 0.00 0.00 37 1007.2
20260504203937 22 98 6.4 22.5 0.00 0.00 0.00 35 1007.1
20260504203437 22 116 6.4 32.2 0.00 0.00 0.00 35 1007.2
20260504203202 22 122 8.0 32.2 0.00 0.00 0.00 36 1007.3
20260504202702 22 153 4.8 20.9 0.00 0.00 0.00 37 1007.4
20260504202155 22 96 6.4 22.5 0.00 0.00 0.00 39 1007.3
20260504201436 22 148 6.4 22.5 0.00 0.00 0.00 39 1007.4
20260504200937 21 93 6.4 19.3 0.00 0.00 0.00 38 1007.5
20260504200437 22 147 6.4 19.3 0.00 0.00 0.00 35 1007.5
20260504195935 22 223 4.8 17.7 0.00 0.00 0.00 37 1007.6
20260504195436 22 171 4.8 25.7 0.00 0.00 0.00 36 1007.7
20260504194936 22 124 6.4 25.7 0.00 0.00 0.00 35 1007.7
20260504194437 22 113 6.4 20.9 0.00 0.00 0.00 35 1007.6
20260504193935 22 111 8.0 20.9 0.00 0.00 0.00 38 1007.7
20260504193434 21 73 11.3 29.0 0.00 0.00 0.00 39 1007.7
20260504192934 22 76 11.3 29.0 0.00 0.00 0.00 36 1007.9
20260504192435 22 101 8.0 24.1 0.00 0.00 0.00 33 1008.0
20260504191935 22 122 8.0 24.1 0.00 0.00 0.00 35 1007.9
20260504191437 22 96 6.4 24.1 0.00 0.00 0.00 35 1008.2
20260504190933 22 110 4.8 17.7 0.00 0.00 0.00 36 1008.1
20260504190435 22 60 6.4 20.9 0.00 0.00 0.00 35 1008.1
20260504185935 21 171 9.7 25.7 0.00 0.00 0.00 35 1008.1
20260504185433 21 121 8.0 25.7 0.00 0.00 0.00 33 1008.2
20260504184933 22 132 4.8 19.3 0.00 0.00 0.00 31 1008.3
20260504184435 22 159 4.8 22.5 0.00 0.00 0.00 32 1008.3
20260504183936 22 223 4.8 22.5 0.00 0.00 0.00 33 1008.4
20260504183433 21 80 6.4 17.7 0.00 0.00 0.00 34 1008.4
20260504183148 21 178 8.0 22.5 0.00 0.00 0.00 34 1008.7
20260504182428 21 142 8.0 22.5 0.00 0.00 0.00 33 1008.8
20260504181931 21 161 6.4 19.3 0.00 0.00 0.00 35 1008.8
20260504181431 21 121 8.0 24.1 0.00 0.00 0.00 36 1008.8
20260504180928 21 62 12.9 32.2 0.00 0.00 0.00 36 1009.0
20260504180428 21 102 11.3 32.2 0.00 0.00 0.00 38 1008.9
20260504175928 21 55 11.3 29.0 0.00 0.00 0.00 42 1009.0
20260504175432 21 75 8.0 24.1 0.00 0.00 0.00 36 1009.0
20260504174928 21 69 8.0 27.4 0.00 0.00 0.00 38 1009.0
20260504174424 21 155 9.7 27.4 0.00 0.00 0.00 39 1009.1
20260504173925 21 54 6.4 25.7 0.00 0.00 0.00 39 1009.1
20260504173424 20 122 6.4 20.9 0.00 0.00 0.00 38 1009.1
20260504172925 20 182 9.7 24.1 0.00 0.00 0.00 40 1009.2
20260504172423 20 123 9.7 24.1 0.00 0.00 0.00 41 1009.3
20260504171923 20 87 8.0 19.3 0.00 0.00 0.00 42 1009.4
20260504171649 20 84 8.0 25.7 0.00 0.00 0.00 47 1009.6
20260504170920 20 38 9.7 25.7 0.00 0.00 0.00 40 1009.6
20260504170423 19 141 9.7 24.1 0.00 0.00 0.00 42 1009.7
20260504160412 18 58 8.0 20.9 0.00 0.00 0.00 44 1010.5
20260504150905 17 150 6.4 24.1 0.00 0.00 0.00 46 1011.1
20260504150402 16 65 9.7 24.1 0.00 0.00 0.00 46 1011.1
20260504140400 15 92 9.7 27.4 0.00 0.00 0.00 47 1011.5
20260504130350 12 119 6.4 19.3 0.00 0.00 0.00 52 1011.6